Skip Page Navigation
NASA JPL Caltech
NASA Logo - Jet Propulsion Laboratory + View the NASA Portal
+ Near-Earth Object (NEO) Program
Search JPL
JPL Home Earth Solar System Stars & Galaxies Technology
JPL Solar System Dynamics
BODIES ORBITS EPHEMERIDES TOOLS PHYSICAL DATA DISCOVERY FAQ SITE MAP
JPL Small-Body Database Browser
Search: [ help ]  
120602 (1995 VZ1)
Classification: Main-belt Asteroid          SPK-ID: 2120602
Ephemeris | Orbit Diagram | Orbital Elements | Physical Parameters | Discovery Circumstances | Close-Approach Data ]

[ show orbit diagram ]
Orbital Elements at Epoch 2457000.5 (2014-Dec-09.0) TDB
Reference: JPL 13 (heliocentric ecliptic J2000)
 Element Value Uncertainty (1-sigma)   Units 
e .1111929950498949 9.3864e-08  
a 2.725936388476473 3.0134e-08 AU
q 2.42283135712628 2.5654e-07 AU
i 5.891993332565082 9.0719e-06 deg
node 65.67458414251429 7.3228e-05 deg
peri 341.1047103999753 8.1537e-05 deg
M 86.55171563796846 3.3691e-05 deg
tp 2456605.274295166402
(2013-Nov-08.77429517)
0.00015348 JED
period 1643.887156844289
4.50
2.7259e-05
7.463e-08
d
yr
n .2189931337447024 3.6313e-09 deg/d
Q 3.029041419826666 3.3485e-08 AU
  Orbit Determination Parameters
   # obs. used (total)      314  
   data-arc span      7979 days (21.85 yr)  
   first obs. used      1993-04-22  
   last obs. used      2015-02-25  
   planetary ephem.      DE431  
   SB-pert. ephem.      SB431-BIG16  
   condition code      0  
   fit RMS      .59204  
   data source      ORB  
   producer      Otto Matic  
   solution date      2015-Mar-09 19:02:51  

Additional Information
 Earth MOID = 1.43327 AU 
 T_jup = 3.340 
[ show covariance matrix ]

Ephemeris | Orbit Diagram | Orbital Elements | Physical Parameters | Discovery Circumstances | Close-Approach Data ]

Physical Parameter Table
Parameter Symbol Value Units Sigma Reference Notes
absolute magnitude H 15.7 mag n/a MPO320374  

120602 (1995 VZ1)          Discovered 1995-Nov-11 by BAO Schmidt CCD Asteroid Program at Xinglong
Reference: 20060314/Numbers.arcLast Updated: 2006-03-23

[ show close-approach data ]
Ephemeris | Orbit Diagram | Orbital Elements | Physical Parameters | Discovery Circumstances | Close-Approach Data ]
ABOUT SSD CREDITS/AWARDS PRIVACY/COPYRIGHT GLOSSARY LINKS
FirstGov 2015-Mar-31 02:03 UT
(server date/time)  
NASA Home Page
Site Manager:   Ryan S. Park
Webmaster  Alan B. Chamberlin